Location: La Brionne
(46.1728°N, 1.7849°E)
Time: 08:44:46
(UTC+00:00)

Meteor 2-10 - Pass Details

Date: 16 June 2021
Orbit: 738 x 868 km, 81.2° (Epoch: 31 July)

Event Time Altitude Azimuth Distance (km) Brightness Sun altitude
Rises 20:33:57 0° 345° (NNW) 3,185 8.4 -7.1°
Reaches altitude 10° 20:36:18 10° 342° (NNW) 2,260 7.6 -7.3°
Maximum altitude 20:41:16 61° 263° (W) 851 4.5 -7.9°
Drops below altitude 10° 20:46:18 10° 184° (S) 2,285 6.1 -8.5°
Enters shadow 20:48:25 - 182° (S) 3,114 6.7 -8.8°
